Weather in Zhangjiakou

China     40°46′37″N   114°53′28″E
temp.,
°C
wind,
m/s
gust,
m/s
humid.,
%
clouds,
%
prec.,
mm/h
press.,
hPa
HPBL,
m
14 august, sun
sun1423:00+22se3886100 0.5 1005313
02:00+21se3796100 8.3 1004352
05:00+20se5997100 4.9 1003511
08:00+20se4896100 11.2 1002458
11:00+21ese4797100 4.1 1001381
14:00+20se3597100 13.3 1001233
17:00+20ese239680 1.8 1000174
20:00+21n119127 1.8 100011
15 august, mon
mon1523:00+20nw229627 0.1 100138
02:00+20nw22885 0.1 100223
05:00+18nnw237812 0.0 100331
08:00+21nw366922 0.0 1005381
11:00+25nw710450 0.0 10041900
14:00+27nw811392 0.0 10032552
17:00+26nw610440 0.0 1003914
20:00+20n34610 0.0 100878
16 august, tue
tue1623:00+17n23660 0.0 101041
02:00+16n22670 0.0 101128
05:00+15n226752 0.0 101133
08:00+18nw12610 0.0 1011304
11:00+22wsw11440 0.0 1010991
14:00+25s213986 0.0 10071200
17:00+25se114112 0.0 1006700
20:00+20e22500 0.0 100718
17 august, wed
wed1723:00+18e33550 0.0 100936
02:00+17ese33650 0.0 100837
05:00+17e227395 0.0 100922
08:00+19se23745 0.0 1009278
11:00+24se446430 0.0 1007671
14:00+27se555590 0.0 1005842
17:00+25ese586624 0.0 1003313
20:00+21se4678100 0.0 1004132
18 august, thu
thu1823:00+20ese4885100 0.0 1005313
02:00+19ese3691100 0.7 1003281
05:00+19ese5997100 9.4 1001462
08:00+19se4799100 16.8 1001388
11:00+19se2398100 17.3 1002188
14:00+19s119494 17.9 1002214
17:00+22se1185100 0.0 1002341
20:00+20ene1191100 0.0 100311